Aérodrome :
LOGIN :

S'inscrire | Disclaimer

   EN    FR    IT 

 










Légende :    VFR   VFR Marginal   IFR   IFR Intensif   IFR Très Intensif
Visi : 
Plafond : 
>= 8 km
>= 3000ft
5 à 8 km
1000 à 3000 ft
1500m à 5 km
500 à 1000 ft
800 à 1500m
200 à 500 ft
< 800m
< 200 ft
Symboles :   Orages  Brouillard  Fortes neiges  Fortes précipitations  Vent > 20 kt
SIGMETs :   Divers  Orages  Givrage  Turbulence  Onde Orograph.  Cendres Volcan.







- Altitude de l'aérodrome : 80 ft
- Code IATA : LPL
- Voir les cartes d'approche


EGGP - Liverpool John Lennon

DERNIER METAR :
  • 170050Z 25007KT CAVOK 14/11 Q1015

METARs EXPIRÉS :
  • 170020Z 27008KT CAVOK 15/12 Q1015
  • 162350Z 26010KT 9999 FEW025 15/11 Q1015
  • 162320Z 24006KT CAVOK 15/12 Q1015
  • 162250Z 25005KT CAVOK 15/11 Q1015
  • 162220Z 25007KT CAVOK 15/12 Q1015

TAF TAF EGGP
Valide du 17 à 00h jusqu'au 18 à 00h UTC


162259Z 1700/1724 23004KT 9999 SCT040
BECMG 1709/1712 25014KT
TEMPO 1715/1718 6000 -RA
ATIS : +44 151 907 2000 (option 5 or ext 5150)
Météo : +44 871 750 5150
Pas de NOTAMs connus pour ce terrain.



MET'MAP, la Météo Aéronautique d'un coup d'oeil ! - Copyright ORBIFLY Décembre 2007 - Disclaimer

ORBIFLY MET'MAP TEAM :

Programmation & Développement : Alexandra Zaïnal
Conception & Développement : Baudouin d'Aumeries
Co-Programmation & Développement : Marc-Olivier Méhu
Soutien technique & logistique : Manuel Goepfert

Contact : metmap@orbifly.com




SOURCES & CREDITS :

   NOAA